This is the latest recevied weather packets stored in our database for station/object DJ0JJ-11. If no packets are shown the sender has not sent any weather packets the latest 10 day(s).
| Time | Temp. | Humidity | Pressure | Rain* | Wind** | Luminosity | Snow |
|---|---|---|---|---|---|---|---|
| 1777553898 | 18.33° C | 24% | 1024.9 hPa | - | - | - | - |
| 1777552998 | 18.33° C | 23% | 1024.9 hPa | - | - | - | - |
| 1777552097 | 17.78° C | 26% | 1025.1 hPa | - | - | - | - |
| 1777551197 | 17.78° C | 26% | 1025.2 hPa | - | - | - | - |
| 1777550297 | 17.22° C | 26% | 1025.3 hPa | - | - | - | - |
| 1777549397 | 17.22° C | 27% | 1025.1 hPa | - | - | - | - |
| 1777548497 | 17.22° C | 29% | 1025.3 hPa | - | - | - | - |
| 1777547597 | 17.22° C | 29% | 1025.3 hPa | - | - | - | - |
| 1777546697 | 17.22° C | 29% | 1025.5 hPa | - | - | - | - |
| 1777545796 | 16.67° C | 30% | 1025.5 hPa | - | - | - | - |
| 1777544896 | 16.11° C | 30% | 1025.6 hPa | - | - | - | - |
| 1777543996 | 16.11° C | 31% | 1025.6 hPa | - | - | - | - |
| 1777543096 | 15.56° C | 31% | 1025.7 hPa | - | - | - | - |
| 1777542196 | 15° C | 31% | 1025.9 hPa | - | - | - | - |
| 1777541296 | 15° C | 32% | 1025.9 hPa | - | - | - | - |
| 1777540396 | 14.44° C | 32% | 1026 hPa | - | - | - | - |
| 1777539495 | 13.89° C | 33% | 1026.2 hPa | - | - | - | - |
| 1777538595 | 13.33° C | 33% | 1026.4 hPa | - | - | - | - |
| 1777537695 | 13.33° C | 34% | 1026.3 hPa | - | - | - | - |
| 1777536795 | 12.78° C | 34% | 1026.2 hPa | - | - | - | - |
| 1777535895 | 12.22° C | 35% | 1026.3 hPa | - | - | - | - |
| 1777534995 | 12.22° C | 37% | 1026.4 hPa | - | - | - | - |
| 1777534094 | 11.67° C | 38% | 1026.5 hPa | - | - | - | - |
| 1777533194 | 11.11° C | 38% | 1026.3 hPa | - | - | - | - |
| 1777532294 | 11.11° C | 38% | 1026.3 hPa | - | - | - | - |
* Rain since midnight (hover to see other rain measurements)
** Current wind speed in m/s (hover to see current wind gust speed)